Torna al catalogo

LIDE

AttivoScienzaSSO
NORAD 64869·PAYLOAD·🇮🇹 Italy

Lanciato Jul 23, 2025 da Vandenberg Space Force Base

Loading…

Prossimi Passaggi (prossime 24 ore)

TLE

AggiornatoSource: Space-Track

Epoca: Sep 14, 2026, 10:26 UTC

1 64869U 25154A   26257.43507492  .00002251  00000-0  21188-3 0  9999
2 64869  97.6628 319.2366 0003972 298.8962  61.1860 14.94832842 62339

Traccia LIDE in tempo reale con AllMySat

Download on the App Store